Stations météo

réclame
Mon MeteoGroup
Koblenz/Falkensteinkaserne, Allemagne (10516): Température de l'air & dewpoint: 18.01.2018 10:00:00 - 24.01.2018 10:00:00 (CET)Koblenz/Falkensteinkaserne, Allemagne (10516): Vitesse du vent & gusts: 18.01.2018 10:00:00 - 24.01.2018 10:00:00 (CET)Koblenz/Falkensteinkaserne, Allemagne (10516): Direction du vent: 18.01.2018 10:00:00 - 24.01.2018 10:00:00 (CET)Koblenz/Falkensteinkaserne, Allemagne (10516): reduced air pressure: 18.01.2018 10:00:00 - 24.01.2018 10:00:00 (CET)Koblenz/Falkensteinkaserne, Allemagne (10516): visibility: 18.01.2018 10:00:00 - 24.01.2018 10:00:00 (CET)
Date & Time tt [°C] td [°C] ff [km/h] ff [knt] fx [km/h] fx [knt] dd ppp [hPa] vv [km]
24.01.2018 10:00:00 10,7 7,4 7 4 - - SSE 1021,1 18
24.01.2018 09:00:00 10,6 7,3 7 4 - - SSE 1021,1 13
24.01.2018 08:00:00 11,0 7,5 7 4 - - S 1021,2 18
24.01.2018 07:00:00 10,6 7,7 4 2 - - S 1021,5 20
24.01.2018 06:00:00 10,6 7,6 7 4 - - S 1021,6 -
24.01.2018 05:00:00 10,4 7,3 14 8 - - SSW 1021,8 -
24.01.2018 04:00:00 10,1 7,1 7 4 - - SSW 1022,1 -
24.01.2018 03:00:00 9,9 6,7 11 6 - - SSW 1022,4 -
24.01.2018 02:00:00 9,8 6,5 7 4 - - SSW 1022,6 -
24.01.2018 01:00:00 9,6 6,3 7 4 - - SW 1022,9 -
24.01.2018 00:00:00 9,3 5,9 7 4 - - S 1022,7 -
23.01.2018 23:00:00 9,3 5,3 7 4 - - SW 1023,0 -
23.01.2018 22:00:00 9,3 4,5 11 6 - - SSW 1023,2 -
23.01.2018 21:00:00 8,6 3,9 7 4 - - N 1023,0 20
23.01.2018 20:00:00 8,8 3,5 7 4 - - S 1023,3 20
23.01.2018 19:00:00 8,5 3,2 7 4 - - S 1023,4 25
23.01.2018 18:00:00 8,8 2,7 7 4 - - S 1023,6 25
23.01.2018 17:00:00 8,7 3,0 11 6 - - SSW 1023,6 25
23.01.2018 16:00:00 9,3 2,5 11 6 - - SSW 1023,7 25
23.01.2018 15:00:00 8,7 3,6 11 6 - - SW 1024,1 25
23.01.2018 14:00:00 8,3 3,5 11 6 - - SW 1024,5 25
23.01.2018 13:00:00 8,0 3,6 7 4 - - S 1024,9 25
23.01.2018 12:00:00 7,2 3,7 11 6 - - SW 1025,5 22
23.01.2018 11:00:00 6,8 3,6 7 4 - - SW 1025,5 22
23.01.2018 10:00:00 6,4 3,4 14 8 - - SSW 1024,9 20
23.01.2018 09:00:00 6,1 3,1 7 4 - - WSW 1024,6 20
23.01.2018 08:00:00 6,0 3,0 7 4 - - W 1024,2 20
23.01.2018 07:00:00 5,8 2,5 4 2 - - S 1023,6 15
23.01.2018 06:00:00 5,6 2,7 4 2 - - N 1023,0 -
23.01.2018 05:00:00 6,0 2,9 7 4 - - WSW 1022,5 -
23.01.2018 04:00:00 5,9 3,2 7 4 - - WSW 1021,9 -
23.01.2018 03:00:00 6,1 2,8 7 4 - - WSW 1021,5 -
23.01.2018 02:00:00 6,2 2,9 11 6 - - WSW 1020,7 -
23.01.2018 01:00:00 6,3 3,0 7 4 - - WSW 1020,1 -
23.01.2018 00:00:00 6,5 3,2 7 4 - - WSW 1019,2 -
22.01.2018 23:00:00 7,1 2,0 7 4 - - W 1018,1 -
22.01.2018 22:00:00 7,3 1,9 7 4 - - W 1017,0 -
22.01.2018 21:00:00 7,5 2,7 7 4 - - N 1016,2 15
22.01.2018 20:00:00 7,8 3,6 11 6 - - WNW 1015,0 15
22.01.2018 19:00:00 7,8 4,2 11 6 - - WNW 1013,9 25
22.01.2018 18:00:00 7,5 4,9 7 4 - - N 1012,6 25
22.01.2018 17:00:00 7,1 4,7 4 2 - - NNW 1011,1 25
22.01.2018 16:00:00 6,9 4,7 4 2 - - NNW 1009,9 30
22.01.2018 15:00:00 7,4 4,9 4 2 - - N 1008,9 30
22.01.2018 14:00:00 7,7 4,8 4 2 - - E 1008,5 30
22.01.2018 13:00:00 6,1 3,7 4 2 - - N 1008,8 30
22.01.2018 12:00:00 5,6 3,6 4 2 - - ENE 1008,9 30
22.01.2018 11:00:00 4,8 3,1 4 2 - - E 1008,8 30
22.01.2018 10:00:00 3,8 2,6 4 2 - - ESE 1008,5 30
22.01.2018 09:00:00 2,7 1,6 4 2 - - N 1008,6 15
22.01.2018 08:00:00 2,3 1,1 7 4 - - SSE 1008,9 6
22.01.2018 07:00:00 2,1 0,9 7 4 - - SSE 1008,7 6
22.01.2018 06:00:00 2,0 1,1 7 4 - - N 1009,4 -
22.01.2018 05:00:00 2,0 1,0 4 2 - - ESE 1009,7 -
22.01.2018 04:00:00 1,9 0,7 4 2 - - N 1010,3 -
22.01.2018 03:00:00 2,1 0,2 7 4 - - SSE 1010,6 -
22.01.2018 02:00:00 2,0 0,1 7 4 - - N 1011,4 -
22.01.2018 01:00:00 1,6 -0,1 7 4 - - ESE 1012,7 -
22.01.2018 00:00:00 2,7 -0,5 7 4 - - SSE 1013,9 -
21.01.2018 23:00:00 3,0 -1,3 11 6 - - SSE 1015,0 -
21.01.2018 22:00:00 2,6 -1,3 11 6 - - SSE 1015,7 -
21.01.2018 21:00:00 2,2 -1,0 4 2 - - N 1017,0 -
21.01.2018 20:00:00 2,3 -1,1 7 4 - - N 1017,8 -
21.01.2018 19:00:00 2,8 -0,9 7 4 - - SSE 1018,0 -
21.01.2018 18:00:00 3,2 -0,6 7 4 - - SSW 1018,3 -
21.01.2018 17:00:00 3,6 -0,4 7 4 - - WSW 1018,4 -
21.01.2018 16:00:00 4,5 -1,0 7 4 - - WNW 1018,2 -
21.01.2018 15:00:00 5,2 -1,2 7 4 - - W 1018,0 -
21.01.2018 14:00:00 3,7 0,1 11 6 - - NW 1017,5 -
21.01.2018 13:00:00 3,7 0,5 4 2 - - N 1017,4 -
21.01.2018 12:00:00 3,8 0,6 7 4 - - W 1017,1 -
21.01.2018 11:00:00 2,7 0,9 4 2 - - S 1016,6 -
21.01.2018 10:00:00 2,4 0,3 4 2 - - N 1015,7 -
21.01.2018 09:00:00 2,1 -0,1 7 4 - - NNW 1014,7 -
21.01.2018 08:00:00 2,1 0,7 11 6 - - NW 1013,2 -
21.01.2018 07:00:00 2,5 0,2 11 6 - - NW 1012,1 -
21.01.2018 06:00:00 2,2 0,6 11 6 - - NW 1010,9 -
21.01.2018 05:00:00 2,3 0,7 11 6 - - WNW 1009,6 -
21.01.2018 04:00:00 2,3 0,8 11 6 - - WNW 1008,3 -
21.01.2018 03:00:00 2,3 1,0 14 8 - - NW 1007,0 -
21.01.2018 02:00:00 2,2 0,9 7 4 - - NW 1005,2 -
21.01.2018 01:00:00 2,2 0,9 11 6 - - NW 1004,0 -
21.01.2018 00:00:00 1,5 0,5 7 4 - - NW 1002,7 -
20.01.2018 23:00:00 1,4 0,4 4 2 - - WNW 1001,7 -
20.01.2018 22:00:00 1,7 0,6 4 2 - - NW 1001,2 -
20.01.2018 21:00:00 1,9 0,7 4 2 - - N 1000,7 -
20.01.2018 20:00:00 1,7 0,6 4 2 - - SE 1000,0 -
20.01.2018 19:00:00 - - - - - - - - -
20.01.2018 18:00:00 1,5 0,2 7 4 - - N 999,8 -
20.01.2018 17:00:00 1,6 0,3 7 4 - - S 1000,5 -
20.01.2018 16:00:00 2,6 0,9 7 4 - - SSE 1001,3 -
20.01.2018 15:00:00 3,1 1,4 7 4 - - N 1002,1 -
20.01.2018 14:00:00 3,6 1,7 7 4 - - N 1003,7 -
20.01.2018 13:00:00 3,5 1,0 11 6 - - SE 1005,2 -
20.01.2018 12:00:00 4,3 0,2 7 4 - - N 1006,8 -
20.01.2018 11:00:00 4,0 0,1 7 4 - - SSE 1008,0 -
20.01.2018 10:00:00 3,4 -0,3 4 2 - - N 1008,8 -
20.01.2018 09:00:00 2,9 -0,6 7 4 - - S 1009,5 -
20.01.2018 08:00:00 2,9 -0,6 11 6 - - SW 1009,9 -
20.01.2018 07:00:00 2,9 -0,5 14 8 - - SSW 1010,0 -
20.01.2018 06:00:00 2,8 -0,5 11 6 - - SW 1010,5 -
20.01.2018 05:00:00 3,1 -0,6 11 6 - - SW 1010,9 -
20.01.2018 04:00:00 3,4 -0,5 11 6 - - SW 1011,1 -
20.01.2018 03:00:00 3,6 -0,4 11 6 - - SSW 1011,4 -
20.01.2018 02:00:00 3,4 -0,7 11 6 - - SW 1012,0 -
20.01.2018 01:00:00 3,1 -0,7 11 6 - - SW 1012,0 -
20.01.2018 00:00:00 3,1 -0,7 11 6 - - WSW 1012,2 -
19.01.2018 23:00:00 3,2 -0,6 11 6 - - SW 1012,0 -
19.01.2018 22:00:00 3,0 -0,8 7 4 - - SSW 1011,9 -
19.01.2018 21:00:00 3,1 -0,6 11 6 - - SW 1011,7 -
19.01.2018 20:00:00 3,7 -0,3 11 6 - - SW 1011,4 -
19.01.2018 19:00:00 4,3 -0,3 11 6 - - SW 1010,8 25
19.01.2018 18:00:00 5,0 -1,2 7 4 - - WSW 1010,9 30
19.01.2018 17:00:00 5,5 -2,2 7 4 - - W 1010,9 30
19.01.2018 16:00:00 5,8 -1,9 7 4 - - WNW 1010,8 30
19.01.2018 15:00:00 5,8 -1,4 7 4 - - WSW 1010,9 30
19.01.2018 14:00:00 5,6 -0,9 7 4 - - W 1011,0 30
19.01.2018 13:00:00 6,3 -1,6 11 6 - - WSW 1011,1 30
19.01.2018 12:00:00 5,8 -1,5 14 8 - - W 1011,3 30
19.01.2018 11:00:00 5,4 -0,4 11 6 - - WSW 1011,0 30
19.01.2018 10:00:00 3,6 0,3 7 4 - - W 1010,5 30
19.01.2018 09:00:00 3,4 0,4 11 6 - - WSW 1009,5 30
19.01.2018 08:00:00 3,5 0,1 11 6 - - WSW 1008,4 30
19.01.2018 07:00:00 3,4 0,0 11 6 - - WSW 1007,4 30
19.01.2018 06:00:00 3,6 0,6 7 4 - - W 1006,9 -
19.01.2018 05:00:00 3,4 0,6 7 4 - - WSW 1006,2 -
19.01.2018 04:00:00 2,7 1,0 4 2 - - WNW 1005,8 -
19.01.2018 03:00:00 2,5 0,9 4 2 - - NNW 1005,7 -
19.01.2018 02:00:00 2,5 0,9 11 6 - - WNW 1005,0 -
19.01.2018 01:00:00 4,2 2,1 11 6 - - SSW 1003,6 -
19.01.2018 00:00:00 3,6 1,7 4 2 - - N 1003,9 -
18.01.2018 23:00:00 3,7 0,9 4 2 - - W 1004,0 -
18.01.2018 22:00:00 4,1 -0,1 4 2 - - WSW 1004,1 -
18.01.2018 21:00:00 3,6 -0,6 4 2 - - N 1004,0 25
18.01.2018 20:00:00 4,0 -1,0 4 2 - - N 1003,8 25
18.01.2018 19:00:00 4,5 -1,3 7 4 - - SW 1003,4 25
18.01.2018 18:00:00 5,9 -1,4 7 4 - - NW 1003,1 25
18.01.2018 17:00:00 7,0 -1,7 11 6 - - WNW 1002,2 30
18.01.2018 16:00:00 8,1 -1,6 25 14 - - WNW 1001,6 30
18.01.2018 15:00:00 8,8 -2,2 25 14 47 25 WNW 1000,9 30
18.01.2018 14:00:00 8,0 -0,4 18 10 72 39 W 999,8 30
18.01.2018 13:00:00 10,5 -1,3 25 14 - - W 997,8 30
18.01.2018 12:00:00 11,9 0,7 29 16 58 31 W 996,1 30
18.01.2018 11:00:00 9,6 4,7 18 10 - - WSW 995,2 20
18.01.2018 10:00:00 7,4 4,1 14 8 - - SSW 996,0 20

tt = Température de l'air
td = dewpoint
ff = Vitesse du vent
fx = gusts
dd = Direction du vent
ppp = reduced air pressure
vv = visibility

stations d'obs. à proximité